GW2109 Weather Reports


time (UTC)temp
C
wind
direction
speed
KPH
gust
KPH
rain 1hr
cm
rain 24hr
cm
rain mn
cm
humidity
%
barometer
mb
20260507191438 14 293 11.3 17.7 0.00 2.67 2.67 71 999.8
20260507190926 14 293 6.4 20.9 0.00 2.67 2.67 72 999.8
20260507185905 14 293 6.4 14.5 0.00 2.67 2.67 72 1000.3
20260507184334 14 270 3.2 12.9 0.00 2.67 2.67 70 1000.9
20260507183824 14 293 6.4 25.7 0.00 2.67 2.67 70 1001.6
20260507182805 14 293 4.8 12.9 0.00 2.67 2.67 69 1002.2
20260507181742 14 225 6.4 12.9 0.00 2.67 2.67 69 1002.5
20260507181231 14 293 4.8 12.9 0.00 2.67 2.67 70 1002.4
20260507180724 14 293 4.8 12.9 0.00 2.67 2.67 69 1002.2
20260507180214 14 270 4.8 11.3 0.00 2.67 2.67 70 1002.1
20260507175153 14 270 4.8 9.7 0.00 2.67 2.67 70 1002.8
20260507174134 14 293 3.2 11.3 0.00 2.67 2.67 70 1003.7
20260507173624 14 293 0.0 11.3 0.00 2.67 2.67 71 1003.7
20260507173114 14 293 6.4 11.3 0.00 2.67 2.67 71 1003.6
20260507172603 14 293 3.2 6.4 0.00 2.67 2.67 72 1003.5
20260507171543 13 270 3.2 11.3 0.00 2.67 2.67 72 1003.2
20260507171034 13 270 3.2 14.5 0.00 2.67 2.67 71 1003.4
20260507170522 13 293 6.4 17.7 0.00 2.67 2.67 71 1002.9
20260507170013 13 293 6.4 17.7 0.00 2.67 2.67 71 1002.2
20260507164953 13 270 3.2 12.9 0.00 2.67 2.67 74 1001.4
20260507164442 13 293 4.8 12.9 0.00 2.67 2.67 76 1001.1
20260507163935 13 270 3.2 12.9 0.00 2.67 2.67 76 1000.9
20260507163422 13 270 4.8 12.9 0.00 2.67 2.67 74 1000.7
20260507162402 13 270 4.8 14.5 0.00 2.67 2.67 75 1001.2
20260507161851 13 293 6.4 14.5 0.00 2.67 2.67 74 1001.3
20260507161342 13 270 4.8 17.7 0.00 2.67 2.67 74 1001.4
20260507160832 13 270 6.4 17.7 0.00 2.67 2.67 75 1002.1
20260507160322 13 293 4.8 11.3 0.00 2.67 2.67 75 1002.3
20260507155811 13 270 3.2 12.9 0.00 2.67 2.67 75 1002.7
20260507155301 13 293 3.2 17.7 0.00 2.67 2.67 75 1002.8
20260507154751 13 293 3.2 17.7 0.00 2.67 2.67 75 1003.4
20260507154242 14 293 6.4 14.5 0.00 2.67 2.67 75 1003.0
20260507153731 14 270 3.2 12.9 0.00 2.67 2.67 76 1002.9
20260507153223 14 270 0.0 12.9 0.00 2.67 2.67 77 1003.0
20260507152200 14 293 1.6 12.9 0.00 2.67 2.67 76 1002.1
20260507151651 15 270 3.2 9.7 0.00 2.67 2.67 77 1002.1
20260507151142 14 248 0.0 12.9 0.00 2.67 2.67 77 1001.7
20260507150631 14 270 3.2 12.9 0.00 2.67 2.67 77 1001.7
20260507145100 14 270 3.2 14.5 0.00 2.67 2.67 80 1001.9
20260507144040 15 270 6.4 14.5 0.00 2.67 2.67 79 1001.7
20260507143529 15 270 6.4 17.7 0.00 2.67 2.67 79 1001.7
20260507143019 15 248 6.4 17.7 0.00 2.67 2.67 78 1002.0
20260507142509 14 248 3.2 12.9 0.00 2.67 2.67 81 1001.8
20260507141959 14 293 4.8 17.7 0.00 2.67 2.67 80 1001.8
20260507141448 14 293 9.7 17.7 0.00 2.67 2.67 80 1001.9
20260507140939 14 293 6.4 17.7 0.00 2.67 2.67 82 1002.0
20260507140435 14 270 8.0 17.7 0.00 2.67 2.67 85 1002.0
20260507135919 14 293 3.2 17.7 0.00 2.67 2.67 86 1001.3
20260507135408 14 270 6.4 14.5 0.00 2.67 2.67 85 1001.8
20260507134906 14 248 4.8 14.5 0.00 2.67 2.67 86 1002.1
20260507134348 14 270 6.4 12.9 0.00 2.67 2.67 83 1002.0
20260507133838 15 293 6.4 12.9 0.00 2.67 2.67 86 1002.1
20260507132817 15 270 3.2 9.7 0.00 2.67 2.67 88 1001.4
20260507132309 15 293 3.2 9.7 0.00 2.67 2.67 88 1001.4
20260507131758 15 248 1.6 6.4 0.00 2.67 2.67 86 1000.8
20260507131248 15 248 0.0 6.4 0.00 2.67 2.67 86 1001.2
20260507130737 15 248 0.0 6.4 0.00 2.67 2.67 87 1001.5
20260507130227 15 293 0.0 9.7 0.00 2.67 2.67 87 1001.2
20260507125718 15 248 1.6 9.7 0.00 2.67 2.67 87 1001.1
20260507125207 15 293 4.8 9.7 0.00 2.67 2.67 87 1001.4
20260507124147 14 270 1.6 6.4 0.00 2.67 2.67 91 1001.5
20260507123127 13 270 0.0 3.2 0.00 2.67 2.67 99 1001.2
20260507122617 13 248 0.0 3.2 0.00 2.67 2.67 99 1001.9
20260507122106 13 270 0.0 3.2 0.00 2.67 2.67 99 1002.0
20260507121557 13 270 0.0 6.4 0.00 2.67 2.67 99 1002.1
20260507121046 13 293 0.0 6.4 0.00 2.67 2.67 99 1003.0
20260507120535 13 293 0.0 12.9 0.00 2.67 2.67 99 1002.8
20260507120026 13 248 0.0 22.5 0.00 2.67 2.67 99 1001.6
20260507115006 13 270 6.4 12.9 0.00 2.67 2.67 99 1000.8
20260507113949 13 270 0.0 11.3 0.00 2.67 2.67 99 1001.6
20260507113436 13 270 1.6 6.4 0.00 2.67 2.67 99 1001.4
20260507112925 13 270 0.0 6.4 0.00 2.67 2.67 99 1000.9
20260507112415 13 270 0.0 14.5 0.00 2.67 2.67 99 1001.1
20260507111906 13 225 1.6 22.5 0.00 2.67 2.67 99 1000.6
20260507111355 13 225 11.3 22.5 0.00 2.67 2.67 99 999.7
20260507110844 13 248 12.9 20.9 0.00 2.67 2.67 99 999.9
20260507110335 14 248 9.7 17.7 0.00 2.67 2.67 99 999.7
20260507105824 14 248 12.9 17.7 0.00 2.67 2.67 99 1000.1
20260507105314 14 270 6.4 14.5 0.00 2.67 2.67 99 1000.9
20260507104805 14 225 4.8 9.7 0.00 2.67 2.67 99 1001.1
20260507104254 14 270 0.0 9.7 0.00 2.67 2.67 99 1001.2
20260507103745 14 270 0.0 9.7 0.00 2.67 2.67 99 1000.3
20260507103234 14 270 1.6 9.7 0.00 2.67 2.67 99 999.8
20260507102729 14 270 0.0 12.9 0.00 2.67 2.67 99 999.5
20260507101704 14 248 6.4 11.3 0.00 2.67 2.67 99 999.5
20260507101154 14 248 6.4 9.7 0.00 2.67 2.67 99 1000.0
20260507100643 14 225 0.0 9.7 0.00 2.67 2.67 99 1000.4
20260507100136 14 180 0.0 11.3 0.00 2.67 2.67 99 1000.1
20260507095622 15 293 4.8 11.3 0.00 2.67 2.67 99 1000.3
20260507094600 15 270 3.2 6.4 0.00 2.67 2.67 99 1000.7
20260507094052 15 270 0.0 6.4 0.00 2.67 2.67 99 1000.7
20260507093545 15 293 1.6 6.4 0.00 2.67 2.67 99 1000.8
20260507092525 15 293 0.0 11.3 0.00 2.67 2.67 99 1000.4
20260507092013 15 293 0.0 12.9 0.00 2.67 2.67 99 999.6
20260507091503 15 248 6.4 25.7 0.00 2.67 2.67 99 998.2
20260507090952 15 203 8.0 25.7 0.00 2.67 2.67 99 997.4
20260507090444 15 203 8.0 22.5 0.00 2.67 2.67 99 998.5
20260507085931 15 248 3.2 12.9 0.00 2.67 2.67 99 999.4
20260507085424 15 270 4.8 9.7 0.00 2.67 2.67 99 999.5
20260507084914 15 293 1.6 6.4 0.00 2.67 2.67 99 999.4
20260507084402 15 293 1.6 6.4 0.00 2.67 2.67 99 999.8
20260507083852 15 270 3.2 6.4 0.00 2.67 2.67 99 1000.0
20260507083341 15 293 3.2 6.4 0.00 2.67 2.67 99 1000.6
20260507082831 15 293 0.0 3.2 0.00 2.67 2.67 99 1000.2
20260507082321 15 293 0.0 0.0 0.03 2.67 2.67 99 1000.0
20260507081811 16 293 0.0 0.0 0.13 2.67 2.67 99 999.7
20260507081301 16 293 0.0 3.2 0.13 2.67 2.67 99 1000.1
20260507080752 16 293 0.0 3.2 0.13 2.67 2.67 99 999.8
20260507075733 16 293 0.0 3.2 0.13 2.67 2.67 99 1000.3
20260507075220 16 293 0.0 6.4 0.15 2.67 2.67 99 1000.3
20260507074710 16 293 1.6 6.4 0.15 2.67 2.67 99 1000.2
20260507074202 16 293 1.6 6.4 0.15 2.67 2.67 99 1000.2
20260507073650 16 293 1.6 6.4 0.15 2.67 2.67 99 1000.7
20260507073142 16 293 0.0 3.2 0.15 2.67 2.67 99 1000.5
20260507072634 16 293 0.0 3.2 0.15 2.67 2.67 99 1000.1
20260507072122 16 293 0.0 3.2 0.05 2.59 2.59 99 1000.7
20260507071610 16 293 0.0 0.0 0.03 2.54 2.54 99 1001.1
20260507071059 16 293 0.0 0.0 0.03 2.54 2.54 99 1000.4
20260507070549 16 293 0.0 0.0 0.03 2.54 2.54 99 1000.0
20260507065529 16 293 0.0 0.0 0.00 2.51 2.54 99 999.7
20260507065019 16 293 0.0 0.0 0.00 2.51 2.51 99 999.4
20260507064514 16 293 0.0 0.0 0.00 2.51 2.51 99 999.5
20260507063958 16 293 0.0 0.0 0.00 2.51 2.51 99 999.7
20260507062938 16 180 0.0 0.0 0.03 2.51 2.51 99 999.4
20260507062429 16 180 0.0 0.0 0.03 2.51 2.51 99 999.0
20260507061920 16 180 0.0 0.0 0.05 2.51 2.51 99 999.3
20260507061408 16 180 0.0 0.0 0.10 2.51 2.51 99 999.7
20260507060858 16 180 0.0 3.2 0.10 2.51 2.51 99 999.5
20260507060348 16 180 0.0 11.3 0.13 2.51 2.51 99 999.1
20260507055328 16 180 6.4 17.7 0.51 2.51 2.51 99 998.4
20260507054818 16 203 4.8 9.7 0.99 2.51 2.51 99 998.2
20260507054310 16 270 3.2 6.4 1.63 2.51 2.51 99 999.3
20260507053757 16 180 6.4 6.4 2.16 2.51 2.51 99 999.4
20260507053252 16 248 0.0 3.2 2.34 2.51 2.51 99 1001.4
20260507052230 17 180 0.0 0.0 2.46 2.46 2.49 99 1002.4
20260507051718 17 180 0.0 6.4 2.44 2.44 2.44 99 1002.1
20260507051209 16 180 0.0 6.4 2.44 2.44 2.44 99 1002.5
20260507050658 16 180 3.2 12.9 2.44 2.44 2.44 99 1001.8
20260507045636 17 225 6.4 11.3 2.18 2.18 2.18 99 1002.4
20260507045156 17 225 6.4 20.9 1.93 1.93 1.93 99 1002.6
20260507042536 18 270 12.9 20.9 0.03 0.03 0.03 92 999.6
20260507042026 18 248 11.3 25.7 0.00 0.00 0.00 89 999.2
20260507041010 19 225 24.1 33.8 0.00 0.00 0.00 86 999.0
20260507040459 20 293 6.4 38.6 0.00 0.00 0.00 86 999.5
20260507035949 20 248 17.7 38.6 0.00 0.00 0.00 86 999.0
20260507035440 24 270 8.0 14.5 0.00 0.00 0.00 83 999.3
20260507034930 25 293 8.0 14.5 0.00 0.00 0.00 81 998.4
20260507034423 25 293 6.4 14.5 0.00 0.00 0.00 80 997.8
20260507033910 25 293 4.8 17.7 0.00 0.00 0.00 80 997.4
20260507032849 25 293 4.8 17.7 0.00 0.00 0.00 80 997.2
20260507031829 25 293 3.2 12.9 0.00 0.00 0.00 80 997.7
20260507031319 25 293 3.2 17.7 0.00 0.00 0.00 80 997.8
20260507030809 25 293 6.4 17.7 0.00 0.00 0.00 79 997.8
20260507030257 25 293 8.0 17.7 0.00 0.00 0.00 79 997.8
20260507025238 25 293 6.4 17.7 0.00 0.00 0.00 79 998.2
20260507024727 25 180 4.8 12.9 0.00 0.00 0.00 79 998.3
20260507023708 25 293 6.4 17.7 0.00 0.00 0.00 78 998.8
20260507023200 25 270 6.4 17.7 0.00 0.00 0.00 77 998.9
20260507022648 26 293 3.2 14.5 0.00 0.00 0.00 77 998.8
20260507021627 25 293 11.3 17.7 0.00 0.00 0.00 77 999.2
20260507021117 25 293 6.4 14.5 0.00 0.00 0.00 78 999.2
20260507020605 25 293 3.2 0.0 0.00 0.00 0.00 79 999.1
20260507015604 25 293 3.2 11.3 0.00 0.00 0.00 81 999.0
20260507015053 25 293 3.2 11.3 0.00 0.00 0.00 81 999.1
20260507014034 25 293 4.8 12.9 0.00 0.00 0.00 80 999.0
20260507013014 25 293 6.4 17.7 0.00 0.00 0.00 80 999.1
20260507012505 25 293 6.4 17.7 0.00 0.00 0.00 81 998.8
20260507011955 25 293 6.4 17.7 0.00 0.00 0.00 81 998.9
20260507011442 25 293 9.7 17.7 0.00 0.00 0.00 81 998.9
20260507010422 25 270 11.3 17.7 0.00 0.00 0.00 80 999.0
20260507004853 24 293 9.7 22.5 0.00 0.00 0.00 82 998.6
20260507004342 24 293 11.3 20.9 0.00 0.00 0.00 82 998.6
20260507003832 24 293 9.7 20.9 0.00 0.00 0.00 82 998.9
20260507002812 24 293 9.7 17.7 0.00 0.00 0.00 81 999.6
20260507000735 25 293 6.4 14.5 0.00 0.00 0.00 81 999.6
20260507000221 25 293 6.4 12.9 0.00 0.00 0.00 80 999.8
20260506235711 25 293 6.4 12.9 0.00 0.00 0.00 80 999.8
20260506235203 25 293 6.4 14.5 0.00 0.00 0.00 79 999.9
20260506234140 25 293 6.4 14.5 0.00 0.00 0.00 78 999.9
20260506233633 25 293 8.0 14.5 0.00 0.00 0.00 77 999.7
20260506233122 25 293 6.4 14.5 0.00 0.00 0.00 77 999.7
20260506232610 26 293 6.4 14.5 0.00 0.00 0.00 76 999.8
20260506231041 26 293 6.4 20.9 0.00 0.00 0.00 75 999.5
20260506230531 26 293 6.4 17.7 0.00 0.00 0.00 74 999.3
20260506230020 26 293 8.0 17.7 0.00 0.00 0.00 74 999.2
20260506225510 26 293 6.4 22.5 0.00 0.00 0.00 74 999.3
20260506224959 26 293 8.0 22.5 0.00 0.00 0.00 74 999.6
20260506224449 26 293 11.3 17.7 0.00 0.00 0.00 74 999.5
20260506223939 26 293 6.4 17.7 0.00 0.00 0.00 75 999.3
20260506223429 26 293 6.4 12.9 0.00 0.00 0.00 75 999.2
20260506222919 26 293 4.8 6.4 0.00 0.00 0.00 76 999.3
20260506221900 26 293 6.4 12.9 0.00 0.00 0.00 76 999.4
20260506221349 26 293 3.2 6.4 0.00 0.00 0.00 76 999.5
20260506215819 26 293 0.0 0.0 0.00 0.00 0.00 76 999.7
20260506215308 26 293 0.0 3.2 0.00 0.00 0.00 75 999.8
20260506214758 26 293 0.0 3.2 0.00 0.00 0.00 75 1000.1
20260506214248 26 293 0.0 3.2 0.00 0.00 0.00 75 1000.0
20260506213738 26 293 0.0 0.0 0.00 0.00 0.00 74 1000.3
20260506212717 27 293 0.0 6.4 0.00 0.00 0.00 72 1000.2
20260506211702 27 293 0.0 6.4 0.00 0.00 0.00 70 1000.2
20260506211151 28 293 0.0 6.4 0.00 0.00 0.00 70 1000.2
20260506210627 28 293 0.0 6.4 0.00 0.00 0.00 69 1000.6
20260506210116 28 293 3.2 6.4 0.00 0.00 0.00 69 1000.4
20260506205607 28 293 0.0 6.4 0.00 0.00 0.00 69 1000.6
20260506205056 28 293 0.0 3.2 0.00 0.00 0.00 68 1000.8
20260506204549 28 293 0.0 3.2 0.00 0.00 0.00 68 1000.6
20260506204036 28 293 0.0 3.2 0.00 0.00 0.00 68 1000.8
20260506203529 28 293 0.0 6.4 0.00 0.00 0.00 67 1000.9
20260506203016 29 293 0.0 6.4 0.00 0.00 0.00 66 1000.8
20260506202506 29 293 0.0 6.4 0.00 0.00 0.00 65 1000.6
20260506201957 29 293 0.0 9.7 0.00 0.00 0.00 65 1000.7
20260506200426 30 293 6.4 22.5 0.00 0.00 0.00 61 1000.6
20260506195916 30 293 4.8 22.5 0.00 0.00 0.00 61 1000.4
20260506195406 30 293 8.0 14.5 0.00 0.00 0.00 61 1000.6
20260506194856 30 293 1.6 14.5 0.00 0.00 0.00 60 1000.5
20260506194345 30 293 1.6 11.3 0.00 0.00 0.00 59 1000.6
20260506193325 30 293 3.2 14.5 0.00 0.00 0.00 59 1000.7
20260506192818 30 270 3.2 12.9 0.00 0.00 0.00 59 1000.9
20260506192306 30 293 3.2 12.9 0.00 0.00 0.00 58 1000.9